STARLINK-35225

Last updated on Sun Oct 19 2025 00:02:05 GMT+0000 (Coordinated Universal Time)

1 65626U 25210E 25291.19648474 .00087441 00000+0 21710-2 0 9993 2 65626 53.1584 251.1546 0000990 98.0238 262.0880 15.39620415 5888

Satellite not in orbit

STARLINK-35225